Kenosha, WI

11:12 AM CDT on September 28, 2016 (GMT -0500)
Kenosha Regional

Weather History for KENW - November, 2011

Change the Weather History Date:

Wednesday, November 23, 2011

  Actual Average Record
Temperature  
Mean Temperature 38 °F -  
Max Temperature 46 °F 42 °F 64 °F (2003)
Min Temperature 30 °F 27 °F 7 °F (1956)
Degree Days  
Heating Degree Days 27    
Moisture  
Dew Point 33 °F    
Average Humidity 85    
Maximum Humidity 96    
Minimum Humidity 66    
Precipitation  
Precipitation 0.00 in - - ()
Sea Level Pressure  
Sea Level Pressure 30.16 in    
Wind  
Wind Speed 6 mph (West)    
Max Wind Speed 12 mph    
Max Gust Speed 20 mph    
Visibility 3 miles    
Events Fog    
Averages and records for this station are not official NWS values.
T = Trace of Precipitation, MM = Missing Value Source: NWS Daily Summary

Daily Weather History Graph

Daily Weather History Graph

Search for Another Location

Airport or City:

Trip Planner

Search our weather history database for the weather conditions in past years. The results will help you decide how hot, cold, wet, or windy it might be!

Date:

Astronomy

Nov. 23, 2011 Rise Set
Actual Time 6:52 AM CST 4:23 PM CST
Civil Twilight 6:21 AM CST 4:54 PM CST
Nautical Twilight 5:47 AM CST 5:28 PM CST
Astronomical Twilight 5:13 AM CST 6:02 PM CST
Moon 4:55 AM CST (11/23) 3:05 PM CST (11/23)
Length of Visible Light 10h 32m
Length of Day
9h 30m
Waning Crescent, 3% of the Moon is Illuminated
Nov 23
Waning Crescent
Nov 25
New
Dec 2
First Quarter
Dec 10
Full
Dec 17
Last Quarter

Hourly Weather History & Observations

Time (CST) Temp. Windchill Dew Point Humidity Pressure Visibility Wind Dir Wind Speed Gust Speed Precip Events Conditions
12:53 AM 37.0 °F 32.4 °F 33.1 °F 86% 30.04 in 5.0 mi NW 5.8 mph - N/A   Mostly Cloudy
1:53 AM 35.1 °F 30.1 °F 32.0 °F 89% 30.06 in 5.0 mi NW 5.8 mph - N/A   Clear
2:53 AM 34.0 °F 28.0 °F 30.9 °F 89% 30.08 in 4.0 mi WNW 6.9 mph - N/A   Clear
3:44 AM 33.8 °F 29.6 °F 30.2 °F 87% 30.06 in 2.5 mi WNW 4.6 mph - N/A   Clear
3:53 AM 33.1 °F 28.7 °F 30.0 °F 89% 30.09 in 2.5 mi WNW 4.6 mph - N/A   Clear
4:12 AM 32.0 °F 26.4 °F 28.4 °F 87% 30.07 in 1.8 mi NW 5.8 mph - N/A   Partly Cloudy
4:20 AM 32.0 °F 25.6 °F 28.4 °F 87% 30.07 in 0.8 mi NW 6.9 mph - N/A   Mist
4:23 AM 30.2 °F 24.3 °F 28.4 °F 93% 30.07 in 0.2 mi NW 5.8 mph - N/A Fog Light Freezing Fog
4:53 AM 30.9 °F 23.5 °F 30.0 °F 96% 30.12 in 0.2 mi WNW 8.1 mph - N/A Fog Light Freezing Fog
5:43 AM 32.0 °F 25.6 °F 30.2 °F 93% 30.12 in 0.2 mi WNW 6.9 mph - N/A Fog Fog
5:53 AM 32.0 °F 25.6 °F 30.9 °F 96% 30.15 in 0.2 mi WNW 6.9 mph - N/A Fog Fog
6:26 AM 32.0 °F 23.6 °F 30.2 °F 93% 30.14 in 0.8 mi NW 10.4 mph - N/A   Overcast
6:35 AM 32.0 °F 24.2 °F 30.2 °F 93% 30.14 in 1.0 mi WNW 9.2 mph - N/A   Overcast
6:53 AM 32.0 °F 23.0 °F 30.9 °F 96% 30.18 in 0.8 mi WNW 11.5 mph - N/A   Overcast
7:53 AM 33.1 °F 24.4 °F 30.9 °F 92% 30.20 in 2.0 mi NNW 11.5 mph - N/A   Overcast
8:53 AM 34.0 °F 31.0 °F 32.0 °F 92% 30.22 in 2.0 mi WNW 3.5 mph - N/A   Overcast
9:53 AM 37.0 °F 34.5 °F 33.1 °F 86% 30.22 in 2.0 mi NW 3.5 mph - N/A   Mostly Cloudy
10:18 AM 39.2 °F - 33.8 °F 81% 30.20 in 3.0 mi Calm Calm - N/A   Haze
10:28 AM 39.2 °F 35.0 °F 33.8 °F 81% 30.20 in 3.0 mi West 5.8 mph - N/A   Haze
10:53 AM 39.0 °F 36.8 °F 34.0 °F 82% 30.21 in 3.0 mi South 3.5 mph - N/A   Haze
11:38 AM 41.0 °F - 33.8 °F 76% 30.19 in 3.0 mi Calm Calm - N/A   Haze
11:53 AM 42.1 °F 37.1 °F 36.0 °F 79% 30.21 in 3.0 mi SW 8.1 mph - N/A   Haze
12:00 PM 42.8 °F 38.6 °F 35.6 °F 76% 30.18 in 3.0 mi SW 6.9 mph - N/A   Haze
12:53 PM 44.1 °F 41.5 °F 35.1 °F 71% 30.19 in 5.0 mi SSW 4.6 mph - N/A   Haze
1:00 PM 44.6 °F 42.2 °F 35.6 °F 71% 30.17 in 5.0 mi SW 4.6 mph - N/A   Haze
1:53 PM 46.0 °F 42.5 °F 35.1 °F 66% 30.19 in 6.0 mi SSW 6.9 mph - N/A   Haze
2:53 PM 46.0 °F 41.9 °F 36.0 °F 68% 30.19 in 5.0 mi SW 8.1 mph - N/A   Haze
3:53 PM 45.0 °F 41.2 °F 35.1 °F 68% 30.19 in 5.0 mi SW 6.9 mph - N/A   Haze
4:53 PM 41.0 °F 35.8 °F 34.0 °F 76% 30.20 in 6.0 mi WSW 8.1 mph - N/A   Haze
5:53 PM 37.9 °F 32.7 °F 33.1 °F 83% 30.20 in 5.0 mi WSW 6.9 mph - N/A   Haze
6:53 PM 39.0 °F 35.7 °F 34.0 °F 82% 30.20 in 5.0 mi SW 4.6 mph - N/A   Haze
7:53 PM 37.9 °F 32.1 °F 34.0 °F 86% 30.21 in 3.0 mi WSW 8.1 mph - N/A   Clear
9:53 PM 36.0 °F 31.1 °F 33.1 °F 89% 30.20 in 2.5 mi SW 5.8 mph - N/A   Clear
10:53 PM 36.0 °F 29.6 °F 33.1 °F 89% 30.19 in 2.5 mi SW 8.1 mph - N/A   Clear
11:22 PM 35.6 °F 28.6 °F 32.0 °F 87% 30.16 in 2.5 mi WSW 9.2 mph - N/A   Scattered Clouds
11:31 PM 37.4 °F 30.3 °F 33.8 °F 87% 30.16 in 2.5 mi WSW 10.4 mph - N/A   Mostly Cloudy
11:53 PM 37.9 °F 30.9 °F 35.1 °F 89% 30.18 in 1.8 mi WSW 10.4 mph 19.6 mph N/A   Overcast